When you browse on this site, cookies collect data to enhance your experience and personalize the content and advertising you see.
Visit our Privacy Policy to learn more. By continuing to use the site, you agree to this use of cookies and data.
  • en France
  • Liste des pays
  • À 7 jours
  • Température de l'eau
  • Carte météo
  • Widgets météo
  • user-avatar
    Se connecter

    Météo par heure à Bovec

    Ce jour, 18 Août, Dimanche

    Heure Température Précipitation Vent Pression Humidité
    00:00 +15°C° 0 mm 1 m/s 692 mmHg 85%
    01:00 +15°C° 0 mm 1 m/s 692 mmHg 88%
    02:00 +15°C° 0 mm 1 m/s 692 mmHg 88%
    03:00 +15°C° 0 mm 1 m/s 692 mmHg 88%
    04:00 +15°C° 0 mm 1 m/s 692 mmHg 88%
    05:00 +16°C° 0 mm 1 m/s 692 mmHg 85%
    06:00 +18°C° 0 mm 1 m/s 692 mmHg 82%
    07:00 +19°C° 0 mm 1 m/s 693 mmHg 79%
    08:00 +21°C° 0 mm 1 m/s 693 mmHg 73%
    09:00 +23°C° 0 mm 1 m/s 693 mmHg 67%
    10:00 +25°C° 0 mm 1 m/s 693 mmHg 61%
    11:00 +25°C° 0 mm 2 m/s 693 mmHg 60%
    12:00 +26°C° 0 mm 2 m/s 693 mmHg 58%
    13:00 +26°C° 0 mm 2 m/s 693 mmHg 56%
    14:00 +26°C° 0 mm 2 m/s 693 mmHg 58%
    15:00 +26°C° 0 mm 2 m/s 693 mmHg 60%
    16:00 +25°C° 0 mm 2 m/s 693 mmHg 61%
    17:00 +23°C° 0 mm 2 m/s 692 mmHg 70%
    18:00 +21°C° 0 mm 1 m/s 692 mmHg 80%
    19:00 +19°C° 0 mm 1 m/s 692 mmHg 89%
    20:00 +19°C° 0 mm 1 m/s 692 mmHg 90%
    21:00 +18°C° 0 mm 1 m/s 692 mmHg 91%
    22:00 +16°C° 0 mm 1 m/s 692 mmHg 92%
    23:00 +16°C° 0 mm 1 m/s 692 mmHg 92%

    Demain, 19 Août, Lundi

    Heure Température Précipitation Vent Pression Humidité
    00:00 +16°C° 0 mm 1 m/s 692 mmHg 93%
    01:00 +16°C° 0 mm 1 m/s 692 mmHg 93%
    02:00 +16°C° 0 mm 1 m/s 692 mmHg 92%
    03:00 +16°C° 0 mm 1 m/s 692 mmHg 92%
    04:00 +16°C° 0 mm 1 m/s 692 mmHg 91%
    05:00 +18°C° 0 mm 1 m/s 692 mmHg 88%
    06:00 +19°C° 0 mm 1 m/s 693 mmHg 85%
    07:00 +18°C° 0 mm 0 m/s 693 mmHg 82%
    08:00 +22°C° 0 mm 1 m/s 694 mmHg 74%
    09:00 +24°C° 0 mm 1 m/s 694 mmHg 66%
    10:00 +26°C° 0 mm 1 m/s 695 mmHg 58%
    11:00 +27°C° 0.1 mm 1 m/s 695 mmHg 56%
    12:00 +27°C° 0.1 mm 1 m/s 695 mmHg 55%
    13:00 +27°C° 0.1 mm 2 m/s 695 mmHg 54%
    14:00 +27°C° 0.3 mm 1 m/s 695 mmHg 56%
    15:00 +27°C° 0.3 mm 1 m/s 695 mmHg 59%
    16:00 +26°C° 0.3 mm 1 m/s 695 mmHg 61%
    17:00 +24°C° 0.1 mm 1 m/s 695 mmHg 68%
    18:00 +22°C° 0.1 mm 1 m/s 694 mmHg 76%
    19:00 +18°C° 0.1 mm 0 m/s 694 mmHg 83%
    20:00 +20°C° 0 mm 1 m/s 694 mmHg 81%
    21:00 +19°C° 0 mm 1 m/s 695 mmHg 80%
    22:00 +19°C° 0 mm 1 m/s 695 mmHg 78%
    23:00 +19°C° 0 mm 1 m/s 695 mmHg 80%

    Après-demain, 20 Août, Mardi

    Heure Température Précipitation Vent Pression Humidité
    00:00 +18°C° 0 mm 1 m/s 695 mmHg 81%
    01:00 +18°C° 0 mm 1 m/s 695 mmHg 83%
    02:00 +18°C° 0 mm 1 m/s 695 mmHg 84%
    03:00 +18°C° 0 mm 1 m/s 695 mmHg 85%
    04:00 +18°C° 0 mm 1 m/s 694 mmHg 86%
    05:00 +18°C° 0 mm 1 m/s 695 mmHg 84%
    06:00 +19°C° 0 mm 1 m/s 695 mmHg 83%
    07:00 +20°C° 0 mm 1 m/s 695 mmHg 82%
    08:00 +22°C° 0 mm 1 m/s 695 mmHg 73%
    09:00 +25°C° 0 mm 1 m/s 696 mmHg 64%
    10:00 +27°C° 0 mm 1 m/s 696 mmHg 55%
    11:00 +28°C° 0 mm 1 m/s 696 mmHg 51%
    12:00 +28°C° 0 mm 1 m/s 696 mmHg 48%
    13:00 +29°C° 0 mm 2 m/s 696 mmHg 44%
    14:00 +29°C° 0 mm 2 m/s 695 mmHg 45%
    15:00 +29°C° 0 mm 2 m/s 695 mmHg 47%
    16:00 +28°C° 0 mm 2 m/s 695 mmHg 48%
    17:00 +26°C° 0 mm 1 m/s 694 mmHg 57%
    18:00 +24°C° 0 mm 1 m/s 694 mmHg 65%
    19:00 +21°C° 0 mm 1 m/s 694 mmHg 74%
    20:00 +21°C° 0 mm 1 m/s 694 mmHg 72%
    21:00 +20°C° 0 mm 1 m/s 694 mmHg 69%
    22:00 +20°C° 0 mm 1 m/s 695 mmHg 67%
    23:00 +19°C° 0 mm 1 m/s 694 mmHg 67%

    21 Août, Mercredi

    Heure Température Précipitation Vent Pression Humidité
    00:00 +19°C° 0 mm 1 m/s 694 mmHg 67%
    01:00 +19°C° 0 mm 1 m/s 694 mmHg 68%
    02:00 +19°C° 0 mm 1 m/s 694 mmHg 68%
    03:00 +18°C° 0 mm 1 m/s 694 mmHg 69%
    04:00 +17°C° 0 mm 2 m/s 694 mmHg 69%
    05:00 +18°C° 0 mm 2 m/s 695 mmHg 70%
    06:00 +18°C° 0 mm 2 m/s 695 mmHg 72%
    07:00 +19°C° 0 mm 2 m/s 696 mmHg 73%
    08:00 +21°C° 0.3 mm 1 m/s 696 mmHg 75%
    09:00 +22°C° 0.3 mm 1 m/s 696 mmHg 77%
    10:00 +22°C° 0.3 mm 1 m/s 697 mmHg 78%
    11:00 +23°C° 0.5 mm 1 m/s 697 mmHg 78%
    12:00 +23°C° 0.5 mm 2 m/s 697 mmHg 78%
    13:00 +23°C° 0.5 mm 2 m/s 697 mmHg 78%
    14:00 +23°C° 0.6 mm 2 m/s 697 mmHg 78%
    15:00 +24°C° 0.6 mm 1 m/s 697 mmHg 77%
    16:00 +24°C° 0.6 mm 1 m/s 696 mmHg 77%
    17:00 +22°C° 0.4 mm 1 m/s 696 mmHg 81%
    18:00 +20°C° 0.4 mm 2 m/s 696 mmHg 84%
    19:00 +19°C° 0.4 mm 2 m/s 696 mmHg 88%
    20:00 +18°C° 0.1 mm 2 m/s 696 mmHg 88%
    21:00 +18°C° 0.1 mm 2 m/s 696 mmHg 89%
    22:00 +17°C° 0.1 mm 2 m/s 696 mmHg 89%
    23:00 +17°C° 0 mm 2 m/s 696 mmHg 90%

    22 Août, Jeudi

    Heure Température Précipitation Vent Pression Humidité
    00:00 +17°C° 0 mm 2 m/s 696 mmHg 90%
    01:00 +17°C° 0 mm 2 m/s 696 mmHg 91%
    02:00 +17°C° 0 mm 2 m/s 696 mmHg 91%
    03:00 +17°C° 0 mm 2 m/s 696 mmHg 91%
    04:00 +17°C° 0 mm 2 m/s 696 mmHg 91%
    05:00 +17°C° 0 mm 2 m/s 696 mmHg 90%
    06:00 +17°C° 0 mm 2 m/s 696 mmHg 89%
    07:00 +18°C° 0 mm 2 m/s 696 mmHg 89%
    08:00 +19°C° 0 mm 2 m/s 697 mmHg 83%
    09:00 +20°C° 0 mm 2 m/s 697 mmHg 77%
    10:00 +23°C° 0 mm 1 m/s 697 mmHg 72%
    11:00 +24°C° 0.1 mm 1 m/s 697 mmHg 67%
    12:00 +25°C° 0.1 mm 1 m/s 697 mmHg 63%
    13:00 +26°C° 0.1 mm 2 m/s 697 mmHg 58%
    14:00 +26°C° 0.2 mm 2 m/s 697 mmHg 61%
    15:00 +26°C° 0.2 mm 2 m/s 697 mmHg 63%
    16:00 +25°C° 0.2 mm 2 m/s 697 mmHg 65%
    17:00 +23°C° 0.4 mm 1 m/s 697 mmHg 72%
    18:00 +22°C° 0.4 mm 1 m/s 696 mmHg 80%
    19:00 +20°C° 0.4 mm 1 m/s 696 mmHg 87%
    20:00 +19°C° 0.3 mm 1 m/s 696 mmHg 89%
    21:00 +19°C° 0.3 mm 1 m/s 697 mmHg 90%
    22:00 +18°C° 0.3 mm 1 m/s 697 mmHg 92%
    23:00 +16°C° 0 mm 2 m/s 697 mmHg 92%

    23 Août, Vendredi

    Heure Température Précipitation Vent Pression Humidité
    00:00 +16°C° 0 mm 2 m/s 697 mmHg 92%
    01:00 +16°C° 0 mm 2 m/s 696 mmHg 92%
    02:00 +16°C° 0 mm 2 m/s 696 mmHg 93%
    03:00 +15°C° 0 mm 2 m/s 696 mmHg 93%
    04:00 +15°C° 0 mm 2 m/s 696 mmHg 93%
    05:00 +16°C° 0 mm 2 m/s 696 mmHg 92%
    06:00 +16°C° 0 mm 2 m/s 696 mmHg 91%
    07:00 +17°C° 0 mm 2 m/s 697 mmHg 90%
    08:00 +19°C° 0 mm 2 m/s 697 mmHg 83%
    09:00 +20°C° 0 mm 2 m/s 697 mmHg 76%
    10:00 +23°C° 0 mm 1 m/s 697 mmHg 69%
    11:00 +24°C° 0.1 mm 2 m/s 697 mmHg 65%
    12:00 +25°C° 0.1 mm 2 m/s 697 mmHg 61%
    13:00 +26°C° 0.1 mm 2 m/s 697 mmHg 57%
    14:00 +26°C° 0.3 mm 2 m/s 697 mmHg 59%
    15:00 +25°C° 0.3 mm 2 m/s 697 mmHg 61%
    16:00 +25°C° 0.3 mm 2 m/s 696 mmHg 63%
    17:00 +23°C° 0.2 mm 2 m/s 696 mmHg 70%
    18:00 +20°C° 0.2 mm 2 m/s 696 mmHg 77%
    19:00 +19°C° 0.2 mm 2 m/s 695 mmHg 83%
    20:00 +18°C° 0.2 mm 2 m/s 696 mmHg 84%
    21:00 +17°C° 0.2 mm 2 m/s 696 mmHg 85%
    22:00 +17°C° 0.2 mm 2 m/s 696 mmHg 85%
    23:00 +16°C° 0 mm 2 m/s 696 mmHg 86%
    Voir plus